Sao Miguel das Matas, Brazil
Current Conditions -  °F | °C
As of 8:00 AM on Friday 24 Oct 2014 (Local Time) from SBSV Reporting Station
Scattered Clouds Scattered Clouds  
Wind Chill: 81°   Ceiling: Unl
Heat Index: 83°   Visibility: 6mi
Dew Point: 66°   Wind: 8mph
Humidity: 61%   Direction: 120°ESE
Pressure: 30"   Gusts: NA
Location:  13.02°S, 39.45°W
Report Text: SBSV 241100Z 12007KT 9999 SCT017 27/19 Q1016
Loading
Personal Weather Stations






























Interactive Weather Map
Tropical Storm Tracking
New forecast layout! Learn more

10-Day Weather Forecast

Advertisements
Track Severe Weather on mobile